Location: Chefe Valiua
(16.5342°S, 37.2214°E)
Time: 14:36:42
(UTC+00:00)

Envisat - Pass Details

Date: 17 June 2021
Orbit: 764 x 766 km, 98.1° (Epoch: 25 July)

Event Time Altitude Azimuth Distance (km) Brightness Sun altitude
Rises 01:15:40 0° 51° (NE) 3,217 7.1 -37.3°
Reaches altitude 10° 01:18:58 10° 74° (ENE) 2,298 6.2 -36.6°
Maximum altitude 01:21:42 15° 108° (ESE) 1,989 5.6 -35.9°
Drops below altitude 10° 01:24:28 10° 141° (SE) 2,310 5.7 -35.3°
Enters shadow 01:24:30 10° 141° (SE) 2,318 5.7 -35.3°
